Location: Chilton Park
(37.7711°N, 100.0276°W)
Time: 10:03:40
(UTC+00:00)

Cosmos 1898 Rocket - Pass Details

Date: 07 July 2022
Orbit: 753 x 783 km, 74.0° (Epoch: 14 August)

Event Time Altitude Azimuth Distance (km) Brightness Sun altitude
Rises 08:39:19 0° 327° (NNW) 3,211 7.1 -24.0°
Reaches altitude 10° 08:42:02 10° 315° (NW) 2,283 6.1 -23.7°
Enters shadow 08:44:57 23° 283° (WNW) 1,584 4.9 -23.4°
